Theta_e
318 320 322 325 325 324 322 324 321 323 321 319 318 321 322 321 321 322 321 327 327 329 338 340 341 339 339 337 336 332 331 332 337 339 339 338 337 335 334 336 337 336 335 334 333 332 330 331 332
318 320 323 325 322 320 318 322 324 322 319 317 318 319 320 321 321 322 325 325 328 329 338 341 341 340 340 338 336 332 330 332 338 339 338 338 337 335 334 335 336 335 333 332 329 326 325 326 326
318 320 323 322 322 319 321 321 320 318 317 319 320 318 320 322 319 322 323 326 328 329 335 339 340 340 339 338 336 333 331 334 337 338 337 335 336 333 332 332 334 334 332 329 325 322 320 320 319
320 321 321 321 321 322 320 321 320 321 317 316 318 319 317 317 320 320 320 328 329 329 332 336 336 337 338 337 337 335 331 337 337 336 335 333 333 331 329 329 331 331 328 325 322 318 312 309 308
318 320 320 320 320 319 319 318 318 319 318 318 317 320 319 315 315 317 322 328 331 330 331 334 329 330 333 335 335 334 333 337 336 335 333 331 331 330 328 326 327 326 324 320 317 318 309 302 301
320 320 319 319 319 318 319 318 317 318 318 317 317 318 319 314 314 316 322 328 330 331 332 334 331 332 334 335 335 333 335 336 335 332 331 329 330 329 326 324 323 321 319 317 315 311 306 303 300
319 319 319 319 320 320 320 315 318 318 318 319 317 319 319 317 313 315 320 327 330 331 332 334 334 333 333 335 336 335 335 336 333 331 329 329 329 327 324 321 320 318 317 317 314 309 305 302 299
320 320 321 320 319 318 318 316 316 317 318 314 315 319 318 318 312 315 320 325 328 330 331 333 334 334 335 335 335 335 335 336 333 331 329 328 328 323 320 317 317 318 317 314 310 307 304 300 299
315 320 320 319 318 317 317 317 314 314 316 315 316 317 318 312 312 318 321 324 326 327 329 331 332 333 333 333 332 334 334 334 333 331 328 327 325 320 318 316 316 318 316 310 303 301 300 300 299
320 320 319 317 316 316 317 316 317 316 318 318 316 316 314 311 314 317 320 322 325 326 326 328 330 330 331 332 331 332 334 333 331 330 327 326 322 318 316 315 315 316 313 308 303 300 299 299 298
320 320 319 316 315 314 316 316 315 317 318 318 318 318 317 313 313 315 317 318 321 323 325 325 326 328 329 329 329 329 331 331 329 327 326 323 319 315 313 313 315 315 311 308 304 298 297 297 297
319 319 318 318 315 316 317 316 317 317 318 317 317 317 316 315 315 314 315 316 318 320 322 324 324 325 326 327 327 328 328 328 327 325 323 321 317 313 311 313 313 312 309 306 300 297 297 297 297
318 318 318 317 316 316 316 317 317 317 317 317 316 315 314 315 314 314 313 314 316 317 319 321 322 323 324 326 326 326 326 326 325 323 321 320 315 311 309 310 310 309 305 301 297 297 296 296 295
316 316 316 315 315 315 315 316 314 315 315 315 314 314 315 313 313 313 312 311 313 315 316 318 320 321 322 323 324 324 323 324 323 321 319 319 312 309 307 308 307 305 302 298 297 296 296 295 294
314 315 315 315 314 314 313 315 315 315 314 314 314 315 314 314 313 312 313 313 312 312 313 315 316 318 320 321 322 322 321 322 322 319 318 317 312 308 303 305 304 302 299 296 296 295 295 294 294
314 313 315 315 312 312 314 315 315 315 312 313 314 314 314 314 314 313 312 312 312 311 311 312 312 314 318 319 320 320 320 319 319 318 316 316 313 308 302 302 301 300 296 295 295 295 295 295 295
314 315 315 314 313 312 314 314 314 313 313 313 313 313 314 314 313 313 312 311 311 311 310 310 310 312 314 317 318 319 318 318 317 316 314 313 312 308 303 300 300 298 295 295 295 295 295 295 295
316 315 314 313 314 313 313 313 312 312 312 312 312 313 313 314 313 312 311 310 310 310 309 309 309 309 312 314 316 317 316 316 315 315 313 311 310 308 303 300 299 297 295 295 295 295 294 295 295
313 313 314 314 313 312 313 313 313 312 312 313 312 313 313 313 312 311 309 308 308 308 308 307 307 306 309 311 313 314 314 314 313 313 311 310 308 307 303 300 298 296 295 295 294 295 294 294 293
313 314 314 314 313 310 313 313 312 313 313 313 314 313 313 312 312 311 308 307 306 305 305 305 305 305 305 309 310 311 311 311 311 311 309 308 306 305 304 300 298 296 295 295 294 294 294 294 293
314 313 314 314 313 311 311 314 313 314 314 313 311 312 310 310 310 309 307 305 303 302 302 302 302 303 303 305 307 308 305 307 307 307 306 305 304 303 305 301 298 296 295 295 294 293 294 295 293
314 314 312 312 312 315 311 317 317 316 315 314 313 312 311 311 309 307 304 302 300 299 300 300 300 301 301 302 304 305 304 305 304 303 303 303 301 301 302 300 298 297 296 295 294 293 294 295 294
314 309 310 310 312 312 314 314 319 312 313 314 312 311 309 308 306 304 302 300 299 298 297 298 299 299 299 300 302 302 303 304 303 301 302 301 299 300 299 298 297 296 295 295 294 293 293 294 295
308 310 310 310 311 317 317 316 318 316 313 313 311 307 307 305 304 302 301 300 299 298 297 296 297 297 297 298 299 300 300 301 301 300 300 300 299 298 298 297 296 296 295 294 294 293 293 293 294
309 311 321 325 324 325 311 314 314 314 310 309 307 306 304 303 303 301 300 299 298 297 297 296 296 295 295 296 297 297 298 299 299 299 299 299 298 296 296 295 295 295 294 294 293 293 292 292 292
312 314 323 327 327 326 317 319 318 315 309 307 306 305 303 302 301 300 299 297 297 296 296 296 295 295 295 294 294 295 295 296 297 297 297 298 298 297 296 295 294 294 294 294 293 292 292 291 291
312 313 313 318 320 320 317 316 316 313 309 308 307 305 302 300 299 299 297 296 296 295 294 295 294 294 294 294 294 294 294 294 294 295 295 296 296 296 295 294 293 293 293 292 292 292 291 291 291
309 312 317 313 318 321 317 317 318 313 310 308 306 303 299 298 298 298 297 295 294 294 294 293 293 292 291 292 293 293 293 293 293 293 293 293 294 294 293 293 293 293 292 291 291 291 291 290 290
312 310 309 310 314 322 322 318 313 311 309 307 302 298 297 296 296 296 296 294 293 293 292 291 291 291 291 290 291 292 292 292 292 292 292 292 292 292 292 292 292 292 291 290 290 290 290 290 290
310 314 314 317 318 315 317 318 310 307 305 301 297 296 295 294 294 294 295 293 291 291 291 291 290 290 289 289 290 290 290 290 290 291 291 291 291 291 290 290 291 291 290 290 289 290 289 289 289
Wind_Speed
3 4 3 3 4 3 3 2 2 3 2 1 2 3 4 6 4 5 1 10 8 21 23 27 26 23 21 19 17 15 13 11 11 11 10 9 8 8 8 8 7 6 4 2 1 4 3 4 3
2 3 1 1 4 3 2 0 3 2 1 1 4 4 5 7 4 4 2 10 11 21 23 25 27 25 22 20 18 16 14 12 12 11 10 9 8 6 5 7 8 6 4 5 3 3 3 3 3
1 2 3 2 2 3 3 1 2 2 3 4 3 3 4 3 2 2 2 13 13 20 21 21 27 26 23 21 19 17 15 14 13 13 11 10 8 7 7 8 9 9 7 5 3 2 2 3 3
1 2 3 4 7 8 6 5 6 9 2 4 3 7 3 5 1 2 3 16 15 19 19 21 26 25 24 22 20 18 17 18 17 14 10 9 10 9 6 8 8 9 8 6 4 3 4 4 4
2 1 2 3 5 5 7 7 6 5 2 3 2 2 4 2 6 4 5 15 15 20 20 19 24 23 23 23 22 20 19 20 17 15 13 10 12 11 8 9 9 9 8 6 6 7 4 3 2
2 2 3 4 4 5 7 5 4 5 2 1 4 5 4 3 4 6 7 13 14 19 21 21 25 23 22 22 22 21 22 20 19 18 16 13 14 12 10 9 9 9 8 7 7 6 5 4 3
2 2 3 5 6 5 1 1 3 3 2 4 1 5 4 5 3 5 7 11 13 17 20 21 22 25 24 23 23 23 24 23 21 17 14 15 16 14 13 11 10 9 10 10 9 7 6 4 3
1 2 2 4 3 5 2 2 1 5 4 2 2 4 5 2 3 5 8 11 14 17 20 21 21 23 23 23 24 25 24 24 23 19 17 18 19 17 15 14 12 11 11 10 9 8 6 3 1
1 4 5 4 5 2 3 4 4 3 8 4 7 9 10 4 4 6 8 11 16 19 21 22 23 23 24 23 25 27 27 26 25 23 20 20 16 15 14 14 14 13 12 11 10 8 5 3 2
5 4 5 4 5 6 5 6 6 6 13 16 13 17 17 7 8 11 14 16 21 23 25 25 25 25 24 24 24 24 23 24 23 22 26 22 18 16 15 15 17 16 14 12 12 10 7 6 4
4 7 6 7 11 7 8 8 4 9 15 15 14 13 10 12 15 17 20 22 23 22 23 28 27 27 26 25 25 23 25 25 24 24 25 23 20 19 19 15 17 15 17 11 11 10 8 8 6
6 11 9 5 4 3 7 5 9 14 26 22 20 16 14 15 14 19 22 23 23 22 25 25 28 27 28 27 27 25 25 26 26 26 28 27 25 21 19 19 19 17 17 15 14 13 11 10 8
9 10 10 12 9 10 11 20 16 21 24 24 19 16 17 16 20 21 21 22 21 24 23 25 26 30 29 29 27 28 28 29 27 26 29 31 26 26 23 21 20 19 20 18 16 14 13 11 9
1 7 12 10 14 13 11 23 4 13 11 15 13 17 15 14 17 18 18 22 22 22 25 24 28 31 30 32 31 31 30 30 30 30 32 36 31 28 25 23 23 22 22 20 17 16 14 12 9
4 11 16 15 11 8 9 12 15 20 8 15 20 16 13 13 16 19 20 19 20 24 24 28 31 33 35 35 35 35 33 32 33 32 34 38 37 33 30 26 25 25 24 22 19 17 14 11 10
6 4 10 8 4 3 8 19 21 13 8 13 18 21 21 26 25 23 21 21 22 23 24 27 31 35 34 36 36 34 33 33 32 30 31 39 40 35 31 27 27 27 26 24 21 18 15 11 9
7 12 13 13 5 3 11 12 14 10 15 26 24 23 22 20 23 21 20 21 22 22 22 24 27 31 34 36 33 33 31 33 33 31 32 36 40 39 34 31 28 30 27 24 20 19 15 13 11
15 12 11 11 10 9 17 21 20 24 23 25 26 25 19 17 16 18 18 18 21 18 19 20 21 24 26 26 28 28 30 33 32 34 35 34 41 40 35 31 32 32 29 26 24 20 16 14 12
13 17 21 21 18 16 22 22 19 21 23 25 24 18 15 11 11 14 15 17 16 14 13 14 16 17 20 23 25 27 29 27 29 31 31 33 38 41 41 36 32 33 33 33 28 22 21 14 15
16 18 21 21 16 4 18 22 26 22 22 21 18 15 12 8 7 13 18 19 19 18 15 11 12 14 18 21 23 25 22 25 26 26 27 30 33 39 43 40 39 39 33 30 30 28 20 12 21
17 15 20 21 17 14 13 13 3 7 13 12 10 8 2 5 12 15 18 24 24 24 21 16 11 8 12 15 15 16 14 16 17 21 22 23 26 33 44 42 40 41 39 37 38 35 27 19 21
17 12 15 14 7 9 8 11 11 13 14 7 5 3 11 14 16 18 20 27 31 29 25 24 18 8 4 9 12 16 17 18 17 18 20 21 24 28 34 38 38 42 44 35 39 38 30 22 19
7 3 2 2 7 10 4 7 4 2 5 4 7 11 14 16 17 17 18 21 22 25 34 28 22 17 9 2 8 11 16 16 14 11 15 19 22 28 29 32 34 37 41 39 41 42 38 32 24
1 5 3 1 4 8 8 7 3 3 1 3 11 14 14 14 14 15 21 25 34 35 30 27 24 21 14 7 4 7 11 13 14 13 13 15 19 23 29 30 31 33 37 41 44 45 44 40 29
5 5 8 7 6 10 5 5 7 11 5 8 12 13 12 13 16 18 22 27 31 31 31 29 28 26 20 14 9 7 9 12 15 16 16 15 15 19 26 31 34 34 36 36 38 40 41 42 35
10 9 8 7 12 17 6 13 10 9 12 14 15 15 16 15 14 16 18 22 24 24 26 26 28 28 27 22 16 12 10 11 14 14 16 17 17 18 20 26 31 33 37 39 40 40 40 38 41
6 8 6 7 10 10 16 24 11 7 8 11 12 12 12 11 13 15 18 21 22 23 23 23 23 24 25 25 24 22 16 13 15 16 15 16 16 17 18 22 29 32 35 37 38 38 41 42 43
6 3 8 5 7 17 13 18 13 9 5 5 8 10 11 12 13 12 14 16 17 19 19 22 21 21 21 21 23 23 23 19 15 13 15 17 17 17 20 22 25 29 33 36 39 36 36 36 36
7 6 8 6 5 5 5 11 4 8 7 6 7 8 9 11 11 10 11 14 15 16 19 21 23 25 26 26 25 22 22 22 21 17 14 14 15 17 21 25 27 28 31 33 36 39 37 40 39
4 14 15 11 8 10 12 15 7 10 8 7 6 5 5 8 8 9 11 13 16 17 18 18 19 21 23 23 21 21 22 22 23 23 22 18 15 15 17 20 26 29 31 33 36 37 37 38 38
Wind_Direction
341 346 337 256 254 252 252 200 306 264 252 33 114 254 310 313 283 324 167 183 178 174 174 181 181 186 186 184 185 184 181 174 170 171 165 160 163 164 161 157 150 136 119 209 161 114 138 155 167
350 341 299 250 262 270 81 114 237 311 343 216 227 231 254 285 260 282 236 193 178 176 177 181 184 185 188 190 192 195 191 185 181 180 173 168 162 156 165 181 167 159 173 212 172 123 133 138 182
34 34 281 312 275 310 351 190 24 356 273 235 255 253 294 247 213 285 253 176 175 181 181 185 191 189 193 197 199 197 197 192 189 185 179 166 154 171 176 186 175 181 160 150 161 178 188 200 234
197 165 133 268 281 280 268 304 301 305 180 226 282 263 226 249 263 190 200 174 175 183 188 193 192 197 200 200 203 200 200 194 195 191 180 198 211 207 184 170 174 187 156 164 177 187 202 231 248
48 215 229 261 273 273 262 290 292 289 293 207 219 301 264 222 222 233 191 184 182 185 188 193 194 198 203 207 210 208 206 197 193 188 206 209 219 214 203 181 178 180 203 204 163 158 181 163 148
149 276 237 269 274 270 282 269 273 258 260 194 227 267 267 178 224 219 202 194 194 190 189 190 196 199 203 206 209 208 201 198 196 204 213 203 214 210 203 192 188 190 184 169 166 166 144 137 125
229 224 286 283 285 285 240 177 231 282 274 258 296 272 283 246 223 210 202 197 198 196 196 197 198 201 203 206 201 202 203 199 202 207 210 208 209 201 198 196 191 183 170 164 156 152 146 145 129
151 239 216 229 279 283 193 214 237 261 305 97 225 244 280 109 201 197 196 197 200 200 203 205 203 203 204 206 208 204 204 204 206 213 215 214 211 210 204 202 192 181 177 167 165 160 154 156 109
214 234 240 244 212 242 181 243 168 293 273 228 209 247 279 209 221 195 196 205 205 209 209 208 207 208 208 209 210 212 213 214 215 213 214 210 206 207 209 197 196 183 183 176 173 183 182 181 177
223 236 245 232 222 253 270 244 284 259 266 258 257 252 250 239 233 231 222 220 215 215 212 210 209 209 209 211 210 211 213 213 213 211 213 203 204 200 196 198 188 191 189 180 182 192 185 173 157
181 242 247 238 241 255 276 270 243 260 270 263 275 289 279 239 242 240 241 238 232 227 218 214 210 209 209 210 210 212 211 210 211 207 200 200 199 204 198 190 190 190 193 178 183 186 177 178 171
234 244 241 261 215 220 264 290 260 246 263 277 284 287 279 265 255 243 243 241 237 227 224 219 214 212 211 209 210 211 211 208 206 203 201 204 202 200 196 193 191 189 188 189 190 188 186 182 180
235 253 248 246 248 250 272 263 263 265 266 278 279 273 267 268 264 263 257 255 244 237 231 224 217 216 214 211 212 213 213 211 210 205 207 207 203 202 197 197 195 195 197 196 192 190 187 185 181
290 263 272 273 255 243 242 267 278 253 269 280 276 275 275 262 266 270 256 253 244 241 235 227 223 219 214 215 214 213 212 211 208 207 210 210 207 204 200 197 198 199 200 198 195 193 189 185 182
322 298 293 263 253 237 219 265 234 267 272 274 285 286 286 270 273 266 271 256 248 243 240 228 225 222 218 218 216 215 213 209 209 209 211 212 210 206 203 201 200 201 200 199 195 192 189 184 182
269 253 280 297 165 191 199 271 283 302 297 286 289 287 284 284 288 290 281 263 259 255 241 242 233 226 221 221 219 217 215 212 213 212 210 213 212 210 204 202 202 201 200 198 195 192 186 182 181
226 269 262 289 240 168 208 276 287 287 293 291 288 284 285 293 292 301 288 272 269 263 251 243 232 228 225 223 219 219 218 217 217 214 212 213 213 210 206 204 202 202 198 197 194 192 187 182 179
273 265 257 264 283 264 282 267 274 282 284 278 285 284 295 291 308 317 307 297 284 272 259 251 241 233 228 226 223 223 222 220 218 216 215 212 213 211 206 206 206 203 199 197 195 192 186 184 174
284 271 275 277 285 291 287 295 294 286 278 280 280 292 290 311 331 336 344 341 329 317 295 271 254 244 225 218 218 221 226 226 226 221 217 214 212 210 208 208 207 205 203 202 197 187 184 174 169
261 271 276 279 278 283 286 295 292 283 275 271 284 293 302 329 32 26 16 11 6 359 347 321 281 258 230 223 219 216 224 231 235 233 229 220 213 212 211 208 206 207 202 201 197 192 180 183 183
256 263 269 280 306 280 296 279 258 294 274 298 277 269 335 37 30 21 18 24 23 14 0 355 336 279 245 241 232 222 230 218 224 232 236 231 224 216 217 213 210 208 205 202 202 198 191 180 194
274 280 270 285 302 290 6 295 301 274 284 324 39 89 94 55 32 33 28 23 19 12 12 19 7 356 263 227 235 236 240 235 228 224 227 229 226 225 223 218 214 211 209 205 207 204 200 192 186
272 7 298 284 285 304 268 266 307 241 250 174 22 74 54 34 35 36 35 28 25 24 29 21 24 27 10 293 235 247 253 257 258 245 222 220 221 223 225 221 218 214 212 210 209 207 203 201 194
320 277 246 218 285 267 309 233 359 266 213 94 91 74 50 39 35 37 41 38 33 29 27 26 28 29 23 7 302 264 269 272 274 271 244 223 219 220 221 223 221 219 218 215 215 215 211 208 203
184 264 297 281 237 266 65 296 280 282 6 25 82 68 49 45 36 33 30 26 28 29 29 30 29 26 23 21 355 318 291 278 271 269 259 250 234 227 224 216 215 219 223 222 219 216 214 212 209
198 206 220 259 270 286 301 265 255 235 87 66 56 47 40 37 39 35 32 34 30 26 28 30 29 25 24 22 12 352 333 300 283 272 263 261 252 244 238 225 220 219 221 222 222 221 221 217 216
163 218 277 266 261 277 270 270 255 238 70 63 60 60 54 41 40 37 28 24 23 21 24 24 27 26 21 16 22 18 6 332 305 292 277 266 261 260 250 235 228 223 221 223 223 219 221 220 220
228 309 255 227 257 248 248 258 252 166 126 87 65 40 30 32 31 29 26 25 20 15 18 18 18 23 21 15 20 19 14 4 335 309 296 287 277 264 257 247 243 230 224 223 223 222 222 221 221
234 233 228 267 258 261 252 242 292 150 127 104 48 35 23 22 22 20 20 19 15 14 13 14 15 11 9 12 11 11 12 8 3 347 325 304 291 276 265 258 251 238 231 227 223 225 222 219 219
281 264 257 248 243 227 249 255 96 114 129 118 101 60 33 26 11 5 9 12 9 8 7 9 7 8 5 0 2 6 3 5 6 359 348 338 315 297 275 263 259 250 237 232 227 227 225 220 219